Weather reports worldwide

Advertisment
Valley, United Kingdom (3302): temperature & dewpoint: 08.12.2017 14:00:00 - 14.12.2017 14:00:00 (GMT)Valley, United Kingdom (3302): temperature -20cm & temperature -100cm: 08.12.2017 14:00:00 - 14.12.2017 14:00:00 (GMT)Valley, United Kingdom (3302): wind speed & gusts: 08.12.2017 14:00:00 - 14.12.2017 14:00:00 (GMT)Valley, United Kingdom (3302): wind direction: 08.12.2017 14:00:00 - 14.12.2017 14:00:00 (GMT)Valley, United Kingdom (3302): reduced air pressure: 08.12.2017 14:00:00 - 14.12.2017 14:00:00 (GMT)Valley, United Kingdom (3302): visibility: 08.12.2017 14:00:00 - 14.12.2017 14:00:00 (GMT)Valley, United Kingdom (3302): sunshine duration: 08.12.2017 14:00:00 - 14.12.2017 14:00:00 (GMT)Valley, United Kingdom (3302): precipitation: 08.12.2017 14:00:00 - 14.12.2017 14:00:00 (GMT)
Date & Time tt [°C] td [°C] tt -20cm [°C] tt -100cm [°C] ff [km/h] ff [kn] fx [km/h] fx [kn] dd ppp [hPa] vv [km] sd [min] rr [mm]
14.12.2017 14:00:00 6,6 2,4 - - 39 21 55 30 WSW 985,1 10 6 0,0
14.12.2017 13:00:00 6,7 2,5 - - 44 24 59 32 SW 986,0 10 0 0,0
14.12.2017 12:00:00 6,7 2,5 - - 42 23 55 30 SW 986,4 10 30 0,0
14.12.2017 11:00:00 6,3 2,0 - - 41 22 55 30 SW 987,2 10 24 0,0
14.12.2017 10:00:00 5,9 1,7 - - 41 22 54 29 SW 988,0 10 0 0,0
14.12.2017 09:00:00 5,8 1,7 6,7 9,0 41 22 55 30 SW 988,6 10 0 0,0
14.12.2017 08:00:00 6,0 1,8 - - 37 20 55 30 WSW 988,6 10 0 0,0
14.12.2017 07:00:00 5,7 0,2 - - 37 20 54 29 WSW 988,7 10 0 0,0
14.12.2017 06:00:00 6,0 0,5 - - 41 22 61 33 W 989,0 35 0 0,0
14.12.2017 05:00:00 5,7 1,0 - - 42 23 61 33 W 989,5 23 0 0,0
14.12.2017 04:00:00 6,1 0,6 - - 48 26 70 38 W 989,6 21 0 0,0
14.12.2017 03:00:00 6,0 0,8 - - 48 26 72 39 W 989,8 22 0 0,0
14.12.2017 02:00:00 5,7 1,6 - - 54 29 74 40 W 989,8 26 0 0,0
14.12.2017 01:00:00 6,0 1,3 - - 54 29 78 42 W 989,7 24 0 0,0
14.12.2017 00:00:00 5,8 1,7 - - 52 28 76 41 W 989,7 30 - 0,0
13.12.2017 23:00:00 5,3 1,9 - - 55 30 76 41 W 989,5 11 0 0,0
13.12.2017 22:00:00 5,2 1,2 - - 52 28 74 40 W 989,7 35 0 0,0
13.12.2017 21:00:00 5,0 0,3 - - 48 26 68 37 W 989,6 26 0 0,0
13.12.2017 20:00:00 4,8 0,7 - - 46 25 72 39 WNW 989,0 10 0 0,0
13.12.2017 19:00:00 4,9 1,6 - - 48 26 67 36 W 988,4 10 0 0,2
13.12.2017 18:00:00 2,6 1,8 - - 44 24 59 32 W 988,4 3,0 0 2,4
13.12.2017 17:00:00 5,5 1,2 - - 37 20 57 31 W 988,8 10 0 0,0
13.12.2017 16:00:00 6,3 0,6 - - 34 18 50 27 W 989,5 10 0 0,0
13.12.2017 15:00:00 6,0 -0,1 - - - - 61 33 - 990,5 35 24 0,0
13.12.2017 14:00:00 6,8 1,0 - - 44 24 63 34 W 990,9 10 42 0,0
13.12.2017 13:00:00 6,9 2,1 - - 42 23 68 37 W 991,1 30 6 0,4
13.12.2017 12:00:00 6,8 4,2 - - 37 20 61 33 W 991,6 28 0 0,0
13.12.2017 11:00:00 7,8 5,2 - - 44 24 70 38 W 991,5 10 0 1,0
13.12.2017 10:00:00 8,3 5,9 - - 52 28 68 37 SW 992,1 10 0 0,6
13.12.2017 09:00:00 8,5 5,8 6,5 9,2 44 24 63 34 SW 993,5 20 0 0,4
13.12.2017 08:00:00 8,6 5,0 - - 46 25 63 34 SW 994,7 10 0 0,0
13.12.2017 07:00:00 8,6 5,4 - - 41 22 54 29 SW 996,1 10 0 0,0
13.12.2017 06:00:00 8,3 5,6 - - 41 22 52 28 SW 997,0 14 0 0,0
13.12.2017 05:00:00 8,1 5,3 - - 35 19 54 29 SW 998,2 11 0 0,0
13.12.2017 04:00:00 8,1 5,7 - - 37 20 50 27 WSW 998,9 13 0 0,0
13.12.2017 03:00:00 8,2 5,2 - - 29 16 - - WSW 999,8 12 0 0,0
13.12.2017 02:00:00 8,2 5,4 - - 29 16 - - WSW 1000,1 11 0 0,0
13.12.2017 01:00:00 8,3 3,9 - - 28 15 - - W 1000,6 19 0 0,0
13.12.2017 00:00:00 8,1 4,9 - - 28 15 - - W 1000,9 14 - 0,0
12.12.2017 23:00:00 7,8 4,8 - - 22 12 - - W 1000,7 14 0 0,0
12.12.2017 22:00:00 7,6 4,5 - - 26 14 - - W 1000,7 15 0 0,0
12.12.2017 21:00:00 7,7 5,4 - - 24 13 46 25 W 1000,7 16 0 0,0
12.12.2017 20:00:00 8,6 5,8 - - 35 19 70 38 WSW 1000,7 10 0 0,8
12.12.2017 19:00:00 8,2 7,9 - - 50 27 68 37 SW 1000,8 3,0 0 2,2
12.12.2017 18:00:00 7,2 6,8 - - 48 26 67 36 SSW 1001,5 4,5 0 2,4
12.12.2017 17:00:00 7,0 5,8 - - 50 27 63 34 SSW 1002,1 5 0 1,0
12.12.2017 16:00:00 7,2 3,2 - - 44 24 63 34 SSW 1002,9 30 0 0,0
12.12.2017 15:00:00 7,4 1,6 - - 31 17 54 29 SSW 1003,1 10 0 0,0
12.12.2017 14:00:00 7,6 3,0 - - 37 20 - - SSW 1004,2 35 0 0,0
12.12.2017 13:00:00 7,3 2,7 - - 31 17 - - SW 1005,3 10 0 -
12.12.2017 12:00:00 7,2 2,4 - - 28 15 - - SSW 1005,8 10 0 0,0
12.12.2017 11:00:00 6,2 3,7 - - 26 14 - - S 1005,9 10 0 0,0
12.12.2017 10:00:00 4,6 1,8 - - 15 8 - - SW 1006,1 10 0 0,0
12.12.2017 09:00:00 2,9 1,8 5,2 9,4 8 4 - - WSW 1006,0 10 0 0,0
12.12.2017 08:00:00 2,8 1,3 - - 4 2 - - WNW 1006,1 10 0 0,0
12.12.2017 07:00:00 2,8 1,5 - - 4 2 - - SSE 1005,8 10 0 0,0
12.12.2017 06:00:00 1,5 -0,6 - - 9 5 - - SSE 1005,2 40 0 0,0
12.12.2017 05:00:00 0,6 -1,6 - - 5 3 - - SE 1004,6 50 0 0,0
12.12.2017 04:00:00 1,2 -0,7 - - 4 2 - - SSE 1004,4 50 0 0,0
12.12.2017 03:00:00 0,4 -0,9 - - 4 2 - - ESE 1004,1 50 0 0,0
12.12.2017 02:00:00 0,9 -1,5 - - 5 3 - - NE 1003,3 50 0 0,0
12.12.2017 01:00:00 0,6 -1,3 - - 5 3 - - NNE 1002,6 50 0 0,0
12.12.2017 00:00:00 0,7 -1,9 - - 5 3 - - N 1001,4 50 - 0,0
11.12.2017 23:00:00 2,0 -0,7 - - 13 7 - - N 1000,5 50 0 0,0
11.12.2017 22:00:00 1,4 -0,4 - - 9 5 - - N 999,7 50 0 0,0
11.12.2017 21:00:00 1,7 0,0 - - 5 3 - - N 999,1 50 0 0,0
11.12.2017 20:00:00 2,7 0,8 - - 8 4 - - NNW 998,2 10 0 0,0
11.12.2017 19:00:00 2,0 0,0 - - 11 6 - - NNE 996,6 10 0 0,0
11.12.2017 18:00:00 2,6 0,4 - - 15 8 - - N 995,2 10 0 0,0
11.12.2017 17:00:00 3,5 0,9 - - 15 8 - - N 994,3 10 0 0,0
11.12.2017 16:00:00 2,3 1,8 - - 8 4 - - NNW 993,3 10 0 0,0
11.12.2017 15:00:00 3,2 1,7 - - 2 1 - - NNE 992,5 10 30 0,0
11.12.2017 14:00:00 3,2 2,3 - - 4 2 - - NNE 991,9 10 6 1,0
11.12.2017 13:00:00 4,5 0,8 - - 9 5 - - ENE 991,5 10 12 0,0
11.12.2017 12:00:00 5,2 0,2 - - 2 1 - - NE 991,0 10 54 0,0
11.12.2017 11:00:00 3,9 -0,1 - - 2 1 - - NE 990,8 10 54 0,0
11.12.2017 10:00:00 -0,2 -1,8 - - 4 2 - - N 990,3 10 24 0,0
11.12.2017 09:00:00 -0,5 -3,9 6,2 9,7 8 4 - - NE 989,4 10 0 0,0
11.12.2017 08:00:00 -0,7 -4,9 - - 9 5 - - NNE 988,4 10 0 0,0
11.12.2017 07:00:00 -1,1 -4,5 - - 8 4 - - N 987,3 10 0 0,0
11.12.2017 06:00:00 -0,7 -2,5 - - 9 5 - - N 986,4 10 0 0,0
11.12.2017 05:00:00 -0,5 -2,8 - - 15 8 - - N 986,1 50 0 0,0
11.12.2017 04:00:00 0,3 -2,7 - - 13 7 - - NNE 986,0 50 0 0,0
11.12.2017 03:00:00 -1,3 -3,8 - - 13 7 - - N 986,0 50 0 0,0
11.12.2017 02:00:00 0,1 -2,9 - - 11 6 - - NNE 985,5 10 0 0,0
11.12.2017 01:00:00 -0,3 -2,1 - - 8 4 - - NE 984,9 10 0 0,0
11.12.2017 00:00:00 0,5 -1,5 - - 8 4 - - NE 984,4 40 - 0,0
10.12.2017 23:00:00 0,5 -1,3 - - 9 5 - - NE 983,8 35 0 0,0
10.12.2017 22:00:00 0,4 -1,2 - - 9 5 - - ENE 983,4 10 0 0,0
10.12.2017 21:00:00 0,7 -0,8 - - 11 6 - - NE 982,6 10 0 0,0
10.12.2017 20:00:00 0,7 -0,9 - - 13 7 - - ENE 981,9 30 0 0,0
10.12.2017 19:00:00 1,6 -0,4 - - 11 6 - - ENE 981,5 24 0 0,0
10.12.2017 18:00:00 1,6 -0,4 - - 13 7 - - ENE 980,8 16 0 0,0
10.12.2017 17:00:00 1,5 -0,4 - - 11 6 - - NE 980,3 17 0 0,0
10.12.2017 16:00:00 1,7 0,1 - - 9 5 - - ENE 980,1 15 0 0,0
10.12.2017 15:00:00 2,0 0,2 - - 11 6 - - E 979,8 15 0 0,0
10.12.2017 14:00:00 2,0 0,0 - - 11 6 - - NE 979,7 10 0 0,0
10.12.2017 13:00:00 1,7 -0,5 - - 15 8 - - ENE 979,5 35 0 0,0
10.12.2017 12:00:00 1,6 0,1 - - 16 9 - - ENE 979,5 35 0 0,0
10.12.2017 11:00:00 1,1 -0,5 - - 22 12 - - ENE 979,7 30 0 0,0
10.12.2017 10:00:00 0,8 -0,3 - - 29 16 50 27 ENE 979,6 8 0 0,0
10.12.2017 09:00:00 0,9 -0,2 7,0 9,9 35 19 50 27 ENE 979,7 10 0 0,2
10.12.2017 08:00:00 1,3 0,0 - - 29 16 48 26 ENE 980,1 15 0 0,0
10.12.2017 07:00:00 1,7 0,5 - - 21 11 - - ENE 981,0 30 0 0,8
10.12.2017 06:00:00 2,5 -0,1 - - 16 9 - - ENE 983,0 22 0 0,2
10.12.2017 05:00:00 2,8 -1,9 - - 8 4 - - ENE 984,5 50 0 0,0
10.12.2017 04:00:00 2,9 -3,0 - - 15 8 - - E 987,5 50 0 0,0
10.12.2017 03:00:00 2,5 -2,1 - - 11 6 - - ENE 991,0 10 0 0,0
10.12.2017 02:00:00 2,1 -2,1 - - 15 8 - - E 993,7 50 0 0,0
10.12.2017 01:00:00 2,2 -2,2 - - 13 7 - - ESE 996,0 10 0 0,0
10.12.2017 00:00:00 2,5 -1,0 - - 11 6 - - E 998,5 50 - 0,0
09.12.2017 23:00:00 3,9 -2,6 - - 8 4 - - S 1000,8 50 0 0,0
09.12.2017 22:00:00 4,7 -3,7 - - 15 8 - - SW 1002,8 10 0 0,0
09.12.2017 21:00:00 4,4 -0,7 - - 4 2 - - WNW 1004,5 50 0 0,0
09.12.2017 20:00:00 4,3 -0,5 - - 4 2 - - W 1006,1 10 0 0,0
09.12.2017 19:00:00 4,9 -2,1 - - 11 6 - - WNW 1007,6 35 0 0,0
09.12.2017 18:00:00 4,9 -1,2 - - 11 6 - - WNW 1008,5 10 0 0,0
09.12.2017 17:00:00 5,0 -1,9 - - 15 8 - - WNW 1009,3 40 0 0,0
09.12.2017 16:00:00 4,9 -0,9 - - 22 12 - - W 1010,5 10 0 0,0
09.12.2017 15:00:00 5,2 -1,1 - - 21 11 - - WNW 1011,6 40 0 0,0
09.12.2017 14:00:00 4,8 -1,0 - - 16 9 - - WNW 1012,7 35 0 0,2
09.12.2017 13:00:00 5,5 -2,7 - - 18 10 - - WNW 1013,9 50 0 0,0
09.12.2017 12:00:00 5,3 -2,2 - - 21 11 - - W 1015,0 40 0 0,0
09.12.2017 11:00:00 5,2 -1,9 - - 18 10 - - WNW 1016,1 10 0 0,0
09.12.2017 10:00:00 4,8 -1,9 - - 22 12 - - W 1016,7 10 0 0,0
09.12.2017 09:00:00 4,2 -2,2 7,2 10,2 16 9 - - WNW 1017,4 10 0 0,0
09.12.2017 08:00:00 3,1 -1,9 - - 15 8 - - WNW 1017,9 45 0 0,0
09.12.2017 07:00:00 4,1 -2,3 - - 21 11 - - WNW 1018,3 45 0 0,0
09.12.2017 06:00:00 3,1 -2,2 - - 16 9 - - WNW 1018,9 45 0 0,0
09.12.2017 05:00:00 3,7 -2,0 - - 21 11 - - WNW 1019,2 45 0 0,0
09.12.2017 04:00:00 4,2 -1,4 - - 24 13 - - WNW 1019,6 10 0 0,0
09.12.2017 03:00:00 3,6 -2,3 - - 16 9 - - WNW 1020,2 10 0 0,0
09.12.2017 02:00:00 4,3 -2,3 - - 22 12 - - NW 1020,4 40 0 0,0
09.12.2017 01:00:00 4,0 -1,6 - - 22 12 - - WNW 1020,6 40 0 0,0
09.12.2017 00:00:00 3,9 -2,2 - - 22 12 - - WNW 1021,1 45 - 0,0
08.12.2017 23:00:00 4,4 -2,9 - - 28 15 - - NW 1020,9 40 0 0,0
08.12.2017 22:00:00 3,9 -2,5 - - 26 14 - - WNW 1021,0 10 0 0,0
08.12.2017 21:00:00 4,0 -1,6 - - 28 15 46 25 WNW 1021,0 10 0 0,0
08.12.2017 20:00:00 4,0 -3,5 - - 28 15 50 27 NW 1021,0 40 0 0,0
08.12.2017 19:00:00 4,3 -2,4 - - 29 16 52 28 NW 1020,7 40 0 0,0
08.12.2017 18:00:00 4,3 -2,5 - - 35 19 52 28 NW 1020,3 40 0 0,0
08.12.2017 17:00:00 4,3 -3,2 - - 31 17 52 28 WNW 1020,0 10 0 0,0
08.12.2017 16:00:00 4,1 -3,2 - - 37 20 57 31 NW 1019,6 10 0 0,0
08.12.2017 15:00:00 4,2 -2,3 - - 37 20 55 30 NW 1019,4 10 0 0,0
08.12.2017 14:00:00 4,0 -3,2 - - 39 21 61 33 NW 1019,4 10 6 0,0

tt = temperature
td = dewpoint
tt -20cm = temperature -20cm
tt -100cm = temperature -100cm
ff = wind speed
fx = gusts
dd = wind direction
ppp = reduced air pressure
vv = visibility
sd = sunshine duration
rr = precipitation

Next stations